Weather History for Atqasuk Edward Burnell Sr Mem, AK

Change the Weather History Date:

Friday, April 11, 2014

  Actual Average (PABR) Record (PABR)
Temperature  
Mean Temperature -9 °F -1 °F  
Max Temperature 0 °F - 30 °F (1957)
Min Temperature -18 °F -8 °F -32 °F (1984)
Degree Days  
Heating Degree Days 74 66  
Month to date heating degree days 765  
Since 1 July heating degree days 16017  
Cooling Degree Days 0    
Month to date cooling degree days  
Year to date cooling degree days  
Moisture  
Dew Point -17 °F    
Average Humidity 77    
Maximum Humidity 84    
Minimum Humidity 70    
Precipitation  
Precipitation 0.00 in 0.01 in 0.21 in (1966)
Month to date precipitation 0.06  
Year to date precipitation 0.42  
Snow  
Snow 0.00 in 0.10 in 2.10 in (1966)
Month to date snowfall 1.1  
Since 1 July snowfall 32.2  
Snow Depth -    
Sea Level Pressure  
Sea Level Pressure 30.23 in    
Wind  
Wind Speed 11 mph (SW)    
Max Wind Speed 15 mph    
Max Gust Speed -    
Visibility 8 miles    
Events Snow    
T = Trace of Precipitation, MM = Missing Value Source: NWS Daily Summary

Daily Weather History Graph

Daily Weather History Graph

Search for Another Location

Airport:

Trip Planner

Search our weather history database for the weather conditions in past years. The results will help you decide how hot, cold, wet, or windy it might be!

Date:

Astronomy

Apr. 11, 2014 Rise Set
Actual Time 6:40 AM AKDT 10:23 PM AKDT
Civil Twilight 5:22 AM AKDT 11:43 PM AKDT
Nautical Twilight 3:03 AM AKDT 1:58 AM AKDT
Astronomical Twilight Sun does not rise Sun does not rise
Moon 5:32 PM AKDT (4/11) 6:35 AM AKDT (4/11)
Length of Visible Light 18h 21m
Length of Day
15h 43m
Waxing Gibbous, 88% of the Moon is Illuminated
Apr 11
Waxing Gibbous
Apr 14
Full
Apr 21
Last Quarter
Apr 28
New
May 6
First Quarter

Hourly Weather History & Observations

Time (AKDT) Temp. Windchill Dew Point Humidity Pressure Visibility Wind Dir Wind Speed Gust Speed Precip Events Conditions
12:56 AM -10.8 °F -32.5 °F -15.9 °F 78% 30.11 in 6.0 mi West 13.8 mph - 0.00 in Snow Light Snow
1:32 AM -11.2 °F -32.9 °F -16.6 °F 77% 30.10 in 8.0 mi West 13.8 mph - 0.00 in Snow Light Snow
1:41 AM -11.2 °F -32.9 °F -16.6 °F 77% 30.11 in 10.0 mi West 13.8 mph - 0.00 in Snow Light Snow
1:56 AM -13.0 °F -35.2 °F -17.9 °F 79% 30.13 in 10.0 mi West 13.8 mph - 0.00 in   Overcast
2:56 AM -15.0 °F -38.5 °F -20.9 °F 75% 30.16 in 10.0 mi West 15.0 mph - 0.00 in   Overcast
3:56 AM -15.9 °F -36.0 °F -22.0 °F 74% 30.18 in 10.0 mi West 10.4 mph - 0.00 in   Overcast
4:56 AM -17.9 °F -39.5 °F -22.9 °F 78% 30.20 in 8.0 mi WSW 11.5 mph - N/A   Overcast
5:11 AM -18.4 °F -39.1 °F -23.8 °F 76% 30.18 in 10.0 mi WSW 10.4 mph - N/A   Overcast
5:34 AM -18.4 °F -39.1 °F -23.8 °F 76% 30.19 in 10.0 mi WSW 10.4 mph - N/A   Mostly Cloudy
5:56 AM -17.9 °F -41.4 °F -24.0 °F 74% 30.22 in 5.0 mi WSW 13.8 mph - N/A   Haze
6:41 AM -18.4 °F -41.2 °F -25.6 °F 70% 30.21 in 10.0 mi WSW 12.7 mph - N/A   Scattered Clouds
6:56 AM -17.9 °F -40.5 °F -24.0 °F 74% 30.23 in 10.0 mi WSW 12.7 mph - N/A   Clear
7:28 AM -18.4 °F -41.2 °F -23.8 °F 76% 30.22 in 10.0 mi SW 12.7 mph - N/A   Scattered Clouds
7:47 AM -18.4 °F -40.2 °F -25.6 °F 70% 30.23 in 10.0 mi WSW 11.5 mph - N/A   Mostly Cloudy
7:56 AM -18.9 °F -39.8 °F -24.9 °F 74% 30.25 in 10.0 mi WSW 10.4 mph - N/A   Mostly Cloudy
8:13 AM -18.4 °F -41.2 °F -23.8 °F 76% 30.23 in 10.0 mi WSW 12.7 mph - N/A   Scattered Clouds
8:31 AM -18.4 °F -41.2 °F -25.6 °F 70% 30.24 in 10.0 mi WSW 12.7 mph - N/A   Mostly Cloudy
8:56 AM -17.9 °F -37.2 °F -24.0 °F 74% 30.26 in 10.0 mi WSW 9.2 mph - N/A   Scattered Clouds
9:56 AM -17.0 °F -34.8 °F -22.9 °F 74% 30.28 in 10.0 mi SW 8.1 mph - N/A   Scattered Clouds
10:06 AM -16.6 °F -35.7 °F -23.8 °F 70% 30.26 in 7.0 mi SW 9.2 mph - N/A   Mostly Cloudy
10:56 AM -13.0 °F -30.0 °F -18.9 °F 75% 30.28 in 10.0 mi SW 8.1 mph - N/A   Mostly Cloudy
11:12 AM -11.2 °F -29.0 °F -16.6 °F 77% 30.26 in 1.8 mi SW 9.2 mph - N/A   Haze
11:15 AM -11.2 °F -29.0 °F -16.6 °F 77% 30.26 in 1.0 mi SW 9.2 mph - N/A   Haze
11:19 AM -11.2 °F -27.8 °F -16.6 °F 77% 30.26 in 0.5 mi SW 8.1 mph - N/A   Haze
11:43 AM -9.4 °F -25.6 °F -14.8 °F 77% 30.27 in 1.0 mi SSW 8.1 mph - N/A   Haze
11:45 AM -9.4 °F -25.6 °F -14.8 °F 77% 30.27 in 1.5 mi SW 8.1 mph - N/A   Haze
11:49 AM -9.4 °F -25.6 °F -14.8 °F 77% 30.27 in 4.0 mi SSW 8.1 mph - N/A   Haze
11:56 AM -9.9 °F -26.3 °F -15.0 °F 78% 30.29 in 10.0 mi SW 8.1 mph - N/A   Overcast
12:23 PM -9.4 °F -24.3 °F -14.8 °F 77% 30.27 in 2.5 mi SSW 6.9 mph - N/A   Haze
12:43 PM -7.6 °F -24.6 °F -11.2 °F 84% 30.27 in 8.0 mi SSW 9.2 mph - N/A   Mostly Cloudy
12:56 PM -6.9 °F -22.5 °F -11.9 °F 79% 30.30 in 10.0 mi SSW 8.1 mph - N/A   Mostly Cloudy
1:17 PM -5.8 °F -21.2 °F -11.2 °F 77% 30.27 in 10.0 mi South 8.1 mph - N/A   Scattered Clouds
1:56 PM -4.0 °F -19.0 °F -8.9 °F 80% 30.30 in 10.0 mi South 8.1 mph - N/A   Clear
2:56 PM -2.9 °F -16.5 °F -6.9 °F 83% 30.29 in 10.0 mi SSE 6.9 mph - N/A   Clear
3:56 PM -0.9 °F -14.1 °F -4.9 °F 83% 30.28 in 10.0 mi SSE 6.9 mph - N/A   Clear
4:56 PM -0.9 °F -15.3 °F -4.9 °F 83% 30.27 in 10.0 mi SSE 8.1 mph - N/A   Clear
5:56 PM -0.9 °F -16.4 °F -4.9 °F 83% 30.25 in 10.0 mi SE 9.2 mph - N/A   Clear
6:56 PM -2.9 °F -18.8 °F -6.9 °F 83% 30.24 in 10.0 mi SSE 9.2 mph - N/A   Clear
7:56 PM -2.9 °F -16.5 °F -8.0 °F 79% 30.24 in 10.0 mi SE 6.9 mph - N/A   Clear
8:56 PM -4.0 °F -16.3 °F -8.0 °F 83% 30.22 in 10.0 mi SSE 5.8 mph - N/A   Clear
9:56 PM -6.9 °F -19.7 °F -10.8 °F 83% 30.22 in 10.0 mi South 5.8 mph - N/A   Clear
10:56 PM -8.9 °F -27.2 °F -13.9 °F 79% 30.21 in 10.0 mi South 10.4 mph - N/A   Clear
11:56 PM -8.0 °F -22.5 °F -11.9 °F 83% 30.21 in 10.0 mi WSW 6.9 mph - N/A   Clear